Rochester, NY

6:16 AM EST on December 07, 2019 (GMT -0500)
Greater Rochester International

Weather History for KROC - May, 2019

Change the Weather History Date:

Wednesday, May 22, 2019

  Actual Average Record
Temperature  
Mean Temperature 56 °F 59 °F  
Max Temperature 68 °F 70 °F 92 °F (1911)
Min Temperature 43 °F 48 °F 34 °F (1990)
Degree Days  
Heating Degree Days 9 7  
Month to date heating degree days 242 221  
Since 1 July heating degree days 6366 6524  
Cooling Degree Days 0 1  
Month to date cooling degree days 3 13  
Year to date cooling degree days 3 17  
Growing Degree Days 6 (Base 50)    
Moisture  
Dew Point 40 °F    
Average Humidity 58    
Maximum Humidity 86    
Minimum Humidity 29    
Precipitation  
Precipitation T in 0.10 in 1.00 in (1882)
Month to date precipitation 2.14 2.02  
Year to date precipitation 12.07 11.61  
Snow  
Snow 0.00 in 0.00 in T in (2006)
Month to date snowfall 0.0 0.4  
Since 1 July snowfall 97.1 99.5  
Snow Depth 0.00 in    
Sea Level Pressure  
Sea Level Pressure 30.21 in    
Wind  
Wind Speed 7 mph (SSE)    
Max Wind Speed 16 mph    
Max Gust Speed 20 mph    
Visibility 10 miles    
Events      
T = Trace of Precipitation, MM = Missing Value Source: NWS Daily Summary

Daily Weather History Graph

Daily Weather History Graph

Search for Another Location

Airport or City:

Astronomy

May. 22, 2019 Rise Set
Actual Time 5:40 AM EDT 8:34 PM EDT
Civil Twilight 5:07 AM EDT 9:08 PM EDT
Nautical Twilight 4:24 AM EDT 9:50 PM EDT
Astronomical Twilight 3:35 AM EDT 10:40 PM EDT
Moon No Moon Rise 8:45 AM EDT (5/22)
Length of Visible Light 16h 00m
Length of Day
14h 53m
Waning Gibbous, 85% of the Moon is Illuminated
May 22
Waning Gibbous
May 26
Last Quarter
Jun 3
New
Jun 10
First Quarter
Jun 17
Full

Hourly Weather History & Observations

Time (EDT) Temp. Windchill Dew Point Humidity Pressure Visibility Wind Dir Wind Speed Gust Speed Precip Events Conditions
12:54 AM 50.0 °F - 41.0 °F 71% 30.21 in 10.0 mi West 5.8 mph - N/A   Clear
1:54 AM 46.9 °F - 39.9 °F 77% 30.22 in 10.0 mi SW 6.9 mph - N/A   Scattered Clouds
2:54 AM 48.0 °F - 39.9 °F 74% 30.22 in 10.0 mi SW 3.5 mph - N/A   Partly Cloudy
3:54 AM 46.0 °F 44.8 °F 39.9 °F 79% 30.23 in 10.0 mi WSW 3.5 mph - N/A   Clear
4:54 AM 44.1 °F - 39.9 °F 85% 30.23 in 10.0 mi Calm Calm - N/A   Scattered Clouds
5:54 AM 44.1 °F - 39.9 °F 85% 30.24 in 10.0 mi Calm Calm - N/A   Mostly Cloudy
7:54 AM 50.0 °F - 43.0 °F 77% 30.29 in 10.0 mi SW 3.5 mph - N/A   Mostly Cloudy
8:54 AM 55.9 °F - 43.0 °F 62% 30.30 in 10.0 mi East 3.5 mph - N/A   Mostly Cloudy
9:54 AM 62.1 °F - 39.9 °F 44% 30.30 in 10.0 mi SE 10.4 mph - N/A   Mostly Cloudy
10:54 AM 62.1 °F - 37.9 °F 41% 30.27 in 10.0 mi ESE 10.4 mph - N/A   Mostly Cloudy
11:54 AM 66.0 °F - 37.0 °F 34% 30.27 in 10.0 mi SSE 6.9 mph - N/A   Mostly Cloudy
12:54 PM 66.9 °F - 35.1 °F 31% 30.26 in 10.0 mi ESE 9.2 mph - N/A   Mostly Cloudy
1:54 PM 68.0 °F - 35.1 °F 30% 30.26 in 10.0 mi SE 11.5 mph - N/A   Mostly Cloudy
2:54 PM 66.0 °F - 33.1 °F 29% 30.20 in 10.0 mi SE 12.7 mph - N/A   Overcast
3:54 PM 66.0 °F - 35.1 °F 32% 30.20 in 10.0 mi ESE 9.2 mph - N/A   Overcast
4:54 PM 66.0 °F - 36.0 °F 33% 30.19 in 10.0 mi ESE 11.5 mph - N/A   Overcast
5:54 PM 66.0 °F - 39.9 °F 38% 30.15 in 10.0 mi SE 12.7 mph - 0.00 in   Overcast
6:54 PM 66.0 °F - 39.9 °F 38% 30.12 in 10.0 mi SE 12.7 mph - N/A   Overcast
7:54 PM 64.9 °F - 42.1 °F 43% 30.12 in 10.0 mi SSE 8.1 mph - 0.00 in   Overcast
8:54 PM 66.0 °F - 41.0 °F 40% 30.08 in 10.0 mi SSE 10.4 mph - N/A   Overcast
9:54 PM 64.0 °F - 43.0 °F 46% 30.12 in 10.0 mi South 8.1 mph - 0.00 in   Overcast
10:54 PM 62.1 °F - 46.0 °F 56% 30.09 in 10.0 mi South 5.8 mph - 0.00 in   Scattered Clouds
11:54 PM 62.1 °F - 46.9 °F 58% 30.10 in 10.0 mi SSW 5.8 mph - N/A   Overcast